Regional Weather Roundup
Issued by NWS

Home | Current Version | Previous Version | Text Only | Print | Product List | Glossary On
Versions: 1 2 3 4 5 6 7 8 9 10 11 12 13 14 15 16 17 18 19 20 21 22 23 24 25 26 27 28 29 30 31 32 33 34 35 36 37 38 39 40 41 42 43 44 45 46 47 48 49 50
000
ASUS45 KPSR 041100
RWRAZ

ARIZONA HOURLY REGIONAL WEATHER ROUNDUP
NATIONAL WEATHER SERVICE PHOENIX AZ
400 AM MST SAT JUL 04 2015

NOTE: FAIR INDICATES FEW OR NO CLOUDS BELOW 12,000 FEET WITH NO
SIGNIFICANT WEATHER AND/OR OBSTRUCTIONS TO VISIBILITY.

AZZ001>003-036-041200-
NORTHWEST ARIZONA

CITY           SKY/WX    TMP DP  RH WIND       PRES   REMARKS
KINGMAN        CLOUDY    81  51  35 S3        29.94S
$$

AZZ004>008-015-016-018-041200-
NORTH CENTRAL ARIZONA

CITY           SKY/WX    TMP DP  RH WIND       PRES   REMARKS
GRAND CANYON   LGT RAIN  62  55  77 CALM      30.20R
WILLIAMS       CLOUDY    61  54  77 S6        30.26S
PRESCOTT       CLOUDY    67  60  78 NE5       30.07R
FLAGSTAFF      NOT AVBL
PAYSON         CLOUDY    68  57  68 E3        30.09R
PAGE           MOCLDY    77  55  46 SE8       30.01S
$$

AZZ009>014-017-041200-
NORTHEAST ARIZONA

CITY           SKY/WX    TMP DP  RH WIND       PRES   REMARKS
WINSLOW        NOT AVBL
SAINT JOHNS    CLOUDY    65  61  87 CALM      30.13F
WINDOW ROCK    MOCLDY    58  54  86 CALM      30.22R
SHOW LOW       CLOUDY    57  55  94 N5        30.19S
$$

AZZ023-041200-
GREATER PHOENIX AREA

CITY           SKY/WX    TMP DP  RH WIND       PRES   REMARKS
PHOENIX        MOCLDY    87  63  44 W5        29.74S
LUKE AFB       CLEAR     84  63  48 S2        29.74R
DEER VALLEY    CLEAR     82  63  52 NE6       29.77R
SCOTTSDALE     CLEAR     82  65  56 CALM      29.78S
$$

AZZ027-028-041200-
SOUTHWEST MARICOPA COUNTY AND PINAL COUNTY

CITY           SKY/WX    TMP DP  RH WIND       PRES   REMARKS
CASA GRANDE    PTCLDY    81  63  54 CALM      29.76F
GILA BEND      FAIR      88  59  37 VRB1      29.72F
$$

AZZ503-504-507>509-041200-
SOUTHEAST ARIZONA

CITY           SKY/WX    TMP DP  RH WIND       PRES   REMARKS
TUCSON         PTCLDY    84  53  34 S3        29.88S
DAVIS-MONTHAN  MOCLDY    80  54  41 SE6       29.87S
NOGALES        MOCLDY    76  56  49 S3        29.98R
SIERRA VISTA   MOCLDY    76  55  48 N6        30.05R
DOUGLAS        LGT RAIN  66  63  88 SE12      30.03F
SAFFORD        MOCLDY    80  59  48 E10       29.93R
$$

AZZ020-021-025-026-031-041200-
SOUTHWEST ARIZONA

CITY           SKY/WX    TMP DP  RH WIND       PRES   REMARKS
YUMA           MOCLDY    91  63  39 NE5       29.68F
$$

CAZ031-033-041-043-047-048-061-041200-
SOUTHERN CALIFORNIA

CITY           SKY/WX    TMP DP  RH WIND       PRES   REMARKS
DOWNTOWN L.A.  MOCLDY    64  59  83 CALM      29.87S
L.A. AIRPORT   CLOUDY    62  60  93 CALM      29.88S
SAN DIEGO      CLOUDY    69  60  73 N3        29.88F
BURBANK        CLEAR     64  59  83 SE5       29.87S
ONTARIO        CLEAR     64  56  75 W7        29.88S
RIVERSIDE      CLEAR     65  57  75 VRB3      29.88S
PALM SPRINGS   PTCLDY    89  53  29 S3        29.72S
EL CENTRO NAS  CLEAR     85  51  31 W8        29.68S
IMPERIAL       PTCLDY    83  57  41 W8        29.66S
BLYTHE         PTCLDY    87  59  38 CALM      29.68F
$$

NVZ020-UTZ003-041200-
SOUTHERN NEVADA-UTAH

CITY           SKY/WX    TMP DP  RH WIND       PRES   REMARKS
LAS VEGAS      NOT AVBL
SALT LAKE CITY MOCLDY    81  50  33 S9        29.90S
$$

NMZ009-TXZ055-041200-
NEW MEXICO-WEST TEXAS

CITY           SKY/WX    TMP DP  RH WIND       PRES   REMARKS
ALBUQUERQUE    MOCLDY    71  55  56 VRB5      30.15R
EL PASO        MOCLDY    79  59  50 SE7       30.03S
$$


........................KEY........................
SKY/WX - SKY CONDITION/WEATHER
TMP    - TEMPERATURE IN FAHRENHEIT
DP     - DEW POINT IN FAHRENHEIT
RH     - RELATIVE HUMIDITY IN PERCENT
WIND   - DIRECTION AND SPEED IN MILES PER HOUR (MPH)
VRB    - VARIABLE WIND DIRECTION
PRES   - MEAN SEA LEVEL PRESSURE IN INCHES OF MERCURY
         F - FALLING PRESSURE   R - RISING PRESSURE
         S - STEADY PRESSURE
VSB    - VISIBILITY IN MILES
HX     - HEAT INDEX IN FAHRENHEIT
WCI    - WIND CHILL INDEX IN FAHRENHEIT
TC     - TEMPERATURE IN CELSIUS WHICH IS ALSO KNOWN AS
         TEMPERATURE IN CENTIGRADE
AFB    - AIR FORCE BASE
         LUKE AFB IS LUKE AIR FORCE BASE
         DAVIS-MONTHAN IS DAVIS-MONTHAN AIR FORCE BASE
NAS    - NAVAL AIR STATION
         EL CENTRO NAS IS EL CENTRO NAVAL AIR STATION
N/A    - NOT AVAILABLE



USA.gov is the U.S. government's official web portal to all federal, state and local government web resources and services.